This demonstration page uses our WeatherBlox Daily Observations layout. Learn more.

Left ArrowRight Arrow

34.74481, -87.66753

Hourly Observations for July 23, 2019

Temp ( °F °C ) Dew Point ( °F °C ) Humidity (%) Winds ( mph kmh ) Pressure ( in mb ) Visibility ( mi km ) Precip ( " mm )
12:24 am 00:24 Mostly Cloudy 75 23.9 72 22.2 90 90 WNW 7 11 29.92 1013 10 16 0.00 0.00
12:43 am 00:43 Mostly Cloudy 74 23.3 72 22.2 94 94 WNW 6 9 29.92 1013 10 16 0.00 0.00
12:53 am 00:53 Cloudy 75 23.9 72 22.2 90 90 WNW 6 9 29.91 1013 10 16 0.00 0.00
1:20 am 01:20 Cloudy 74 23.3 71 21.7 91 91 NW 10 17 29.91 1013 10 16 0.00 0.00
1:53 am 01:53 Cloudy 73 22.8 70 21.1 90 90 NNW 6 9 29.90 1013 10 16 0.00 0.00
2:53 am 02:53 Cloudy 72 22.2 69 20.6 91 91 N 9 15 29.91 1013 10 16 0.00 0.00
3:53 am 03:53 Cloudy 72 22.2 68 20 87 87 NNE 5 7 29.91 1013 10 16 0.00 0.00
4:12 am 04:12 Cloudy 72 22.2 67 19.4 84 84 N 8 13 29.92 1013 10 16 0.00 0.00
4:29 am 04:29 Cloudy 72 22.2 67 19.4 84 84 N 6 9 29.93 1014 10 16 0.00 0.00
4:53 am 04:53 Cloudy 72 22.2 67 19.4 84 84 VRB 5 7 29.93 1014 10 16 0.00 0.00
5:38 am 05:38 Cloudy 71 21.7 65 18.3 81 81 VRB 7 11 29.96 1015 10 16 0.00 0.00
5:53 am 05:53 Cloudy 71 21.7 65 18.3 81 81 N 7 11 29.96 1015 10 16 0.00 0.00
6:35 am 06:35 Cloudy 70 21.1 64 17.8 82 82 N 6 9 29.98 1015 10 16 0.00 0.00
6:53 am 06:53 Cloudy 70 21.1 64 17.8 82 82 N 7 11 29.98 1015 10 16 0.00 0.00
7:06 am 07:06 Cloudy 71 21.7 65 18.3 81 81 N 6 9 29.98 1015 10 16 0.00 0.00
7:53 am 07:53 Cloudy 71 21.7 65 18.3 81 81 VRB 7 11 29.99 1016 10 16 0.00 0.00
8:53 am 08:53 Cloudy 73 22.8 64 17.8 74 74 NNE 8 13 29.99 1016 10 16 0.00 0.00
9:53 am 09:53 Mostly Cloudy 76 24.4 64 17.8 67 67 NNE 12 19 30.00 1016 10 16 0.00 0.00
10:11 am 10:11 Partly Cloudy 76 24.4 64 17.8 67 67 NNE 10 17 30.00 1016 10 16 0.00 0.00
10:53 am 10:53 Partly Cloudy 78 25.6 65 18.3 64 64 N 10 17 30.01 1016 10 16 0.00 0.00
11:53 am 11:53 Partly Cloudy 79 26.1 64 17.8 60 60 N 9 15 30.01 1016 10 16 0.00 0.00
12:53 pm 12:53 Partly Cloudy 81 27.2 64 17.8 57 57 N 8 13 30.00 1016 10 16 0.00 0.00
1:53 pm 13:53 Mostly Sunny 82 27.8 63 17.2 53 53 NNE 10 17 29.99 1016 10 16 0.00 0.00
2:53 pm 14:53 Partly Cloudy 82 27.8 63 17.2 53 53 NNE 8 13 29.98 1015 10 16 0.00 0.00
3:53 pm 15:53 Partly Cloudy 81 27.2 61 16.1 51 51 N 8 13 29.98 1015 10 16 0.00 0.00
4:53 pm 16:53 Mostly Sunny 82 27.8 60 15.6 47 47 NNE 14 22 29.98 1015 10 16 0.00 0.00
5:53 pm 17:53 Sunny 81 27.2 59 15 47 47 N 12 19 29.97 1015 10 16 0.00 0.00
6:53 pm 18:53 Sunny 79 26.1 59 15 50 50 N 9 15 29.98 1015 10 16 0.00 0.00
7:53 pm 19:53 Sunny 76 24.4 61 16.1 60 60 N 8 13 30.00 1016 10 16 0.00 0.00
8:53 pm 20:53 Clear 73 22.8 61 16.1 66 66 N 7 11 30.01 1016 10 16 0.00 0.00
9:53 pm 21:53 Clear 73 22.8 60 15.6 64 64 N 8 13 30.03 1017 10 16 0.00 0.00
10:53 pm 22:53 Clear 71 21.7 61 16.1 71 71 VRB 5 7 30.03 1017 10 16 0.00 0.00
11:53 pm 23:53 Clear 70 21.1 61 16.1 73 73 N 7 11 30.04 1017 10 16 0.00 0.00

Powered by AerisWeather